User: anonymous   Login
Location: Wien
(48.2082°N, 16.3738°E)
Time: 10:28:11
(UTC+01:00)
Language:

S-56A Canister/Altair - Orbit

View from above orbital plane
View from above orbital plane
View from above satellite
View from above satellite

Ground track
Ground track

The orbit data is extracted from the following two-line orbital elements,

1 00082U 61004B   24055.91354164  .00000682  00000-0  62420-3 0  9993
2 00082  38.8503 249.2055 1163815 107.0568 266.0718 12.26568366973204
Epoch (UTC): 24 February 2024 21:55:29
Eccentricity: 0.1163815
inclination: 38.8503°
perigee height: 640 km
apogee height: 2488 km
right ascension of ascending node: 249.2055°
argument of perigee: 107.0568°
revolutions per day: 12.26568366
mean anomaly at epoch: 266.0718°
orbit number at epoch: 97320

The dashed part of the orbit path shows where the satellite is in the earth's shadow,  

DLR